{"data":{"norad_id":68816,"epoch":"2026-05-25T02:40:07.681728Z","epoch_age_seconds":61451,"freshness":"FRESH","line1":"1 68816U 26089Q   26145.11120002  .00193278  00000+0  12682-2 0  9999","line2":"2 68816  97.2853 351.7658 0001470  93.5252 266.6181 15.75178727  5069","mean_motion":15.75178727,"eccentricity":0.000147,"inclination_deg":97.2853,"raan_deg":351.7658,"arg_perigee_deg":93.5252,"mean_anomaly_deg":266.6181,"bstar":0.0012682,"rev_number":506,"period_min":91.41819752369,"perigee_km":343.13446889207,"apogee_km":345.11081322654,"semimajor_km":6722.2596410593,"source":"CELESTRAK","updated_at":"2026-05-25T13:38:22.042962Z"}}